www.pogodaiklimat.ru

Погода и климат >> Архив погоды >> Ирак >> Basrah Airport


ПОГОДА в Basrah Airport

  • Прогноз погоды в Basrah Airport
  • Монитор погоды в Basrah Airport
  • Климат города

АРХИВ ПОГОДЫ в Basrah Airport

Время (UTC), дата Ветер
(напр.,м/с)
 
Видим.   Явления Облачность Т
(С)
Тd
(С)
f
(%)
Тe
(С)
Тes
(С)
Комфортность P
(гПа)
Po
(гПа)
Тmin
(С)
Tmax
(С)
R
(мм)
R24
(мм)
S
(см)
09 13.06 З 3 10 км ясно +41.3 +4.9 11 +38 +57 опасность
солнечного
удара
999.5 1000.0
12 13.06 СЗ 5 10 км ясно +44.3 +2.2 8 +41 +47 опасность
перегрева
997.7 998.0
15 13.06 СЗ 6 10 км ясно +42.2 +3.0 9 +39 +39 очень
жарко
997.3 997.0
18 13.06 СВ 3 10 км ясно +36.8 +7.5 17 +35 +35 очень
жарко
998.0 998.0 +44.3
21 13.06 Ю 4 10 км ясно +34.0 +5.8 17 +32 +32 жарко 998.7 999.0
03 14.06 З 3 10 км ясно +30.2 +4.5 20 +28 +29 жарко 999.4 999.0
06 14.06 З 6 10 км ясно +39.3 +7.9 15 +37 +43 очень
жарко
1001.1 1001.0 +30.0
09 14.06 З 4 10 км ясно +42.7 +2.4 9 +39 +54 опасность
солнечного
удара
1001.3 1001.0
12 14.06 СЗ 7 10 км ясно +43.5 +4.1 9 +40 +44 очень
жарко
1000.1 1000.0
15 14.06 З 9 10 км ясно +41.9 +5.2 11 +39 +39 очень
жарко
1000.1 1000.0
18 14.06 СЗ 4 10 км ясно +36.9 +10.6 20 +36 +36 очень
жарко
1001.4 1001.0 +44.3
21 14.06 С 4 8000 м пыль ясно +34.0 +9.0 22 +33 +33 жарко 1001.5 1002.0
00 15.06 С 3 10 км ясно +31.8 +7.7 22 +30 +30 жарко 1000.7 1001.0
03 15.06 ЮЗ 4 10 км ясно +30.9 +8.8 25 +30 +31 жарко 1002.4 1002.0
06 15.06 З 5 10 км ясно +37.3 +8.4 17 +35 +43 очень
жарко
1003.7 1004.0 +30.0
09 15.06 З 5 10 км ясно +41.7 +7.1 12 +39 +51 опасность
солнечного
удара
1003.0 1003.0
12 15.06 З 10 10 км ясно +45.2 +4.7 9 +42 +43 опасность
перегрева
1001.7 1002.0
15 15.06 СЗ 7 10 км ясно +41.0 +8.3 14 +39 +39 очень
жарко
1001.5 1002.0
21 15.06 СЗ 5 10 км ясно +33.5 +10.0 24 +33 +33 жарко 1003.1 1003.0
00 16.06 СЗ 6 10 км ясно +29.3 +11.3 33 +30 +30 жарко 1002.4 1002.0
03 16.06 З 4 10 км ясно +29.1 +11.3 33 +30 +31 жарко 1002.9 1003.0
21 16.06 З 6 10 км ясно +33.5 +8.3 21 +32 +32 жарко 1002.5 1003.0
00 17.06 З 6 10 км ясно +30.1 +9.6 28 +30 +30 жарко 1001.8 1002.0
03 17.06 З 6 10 км ясно +29.1 +8.2 27 +29 +29 жарко 1002.0 1002.0
06 17.06 СЗ 10 10 км ясно +38.5 +7.2 15 +36 +37 очень
жарко
1002.0 1002.0 +28.5
09 17.06 СЗ 14 10 км ясно +44.1 +2.8 8 +41 +41 опасность
перегрева
1000.7 1001.0
12 17.06 СЗ 15 5000 м пыльный позёмок ясно +46.3 +4.6 8 +43 +43 опасность
перегрева
998.8 999.0
15 17.06 СЗ 13 10 км ясно +42.2 +7.0 12 +40 +40 очень
жарко
998.9 999.0
18 17.06 З 8 10 км ясно +36.8 +8.1 17 +35 +35 очень
жарко
1000.0 1000.0 +46.8
21 17.06 З 9 10 км ясно +33.7 +9.8 23 +33 +33 жарко 1000.0 1000.0
00 18.06 З 7 10 км ясно +31.5 +9.6 26 +31 +31 жарко 999.6 1000.0
03 18.06 З 6 10 км ясно +31.2 +8.8 25 +30 +31 жарко 1000.3 1000.0
06 18.06 З 10 10 км ясно +40.5 +7.0 13 +38 +39 очень
жарко
1001.0 1001.0 +29.8
09 18.06 З 11 10 км ясно +46.8 +4.0 8 +44 +44 опасность
перегрева
1000.2 1000.0
12 18.06 З 14 10 км ясно +46.6 +4.8 8 +44 +44 опасность
перегрева
999.4 999.0
15 18.06 З 11 10 км ясно +43.6 +5.8 10 +41 +41 опасность
перегрева
999.5 1000.0
18 18.06 З 5 10 км ясно +36.9 +9.7 19 +35 +35 очень
жарко
1001.2 1001.0 +47.1
21 18.06 З 9 10 км ясно +34.1 +9.6 22 +33 +33 жарко 1001.3 1001.0
00 19.06 СЗ 8 10 км ясно +31.1 +10.0 27 +31 +31 жарко 1001.5 1002.0
06 19.06 СЗ 8 10 км ясно +39.0 +5.0 12 +36 +38 очень
жарко
1003.4 1003.0 +29.7
09 19.06 СЗ 10 10 км ясно +43.8 +4.1 9 +41 +42 опасность
перегрева
1003.1 1003.0
15 19.06 СЗ 8 10 км ясно +41.8 +7.7 13 +40 +40 очень
жарко
1002.8 1003.0
18 19.06 З 5 10 км ясно +36.0 +7.1 17 +34 +34 очень
жарко
1004.1 1004.0 +45.8
21 19.06 З 6 10 км ясно +33.9 +8.1 20 +32 +32 жарко 1004.0 1004.0
00 20.06 СЗ 7 10 км ясно +30.8 +10.0 28 +31 +31 жарко 1003.1 1003.0
03 20.06 СЗ 6 10 км ясно +30.1 +9.5 28 +30 +30 жарко 1003.5 1004.0
06 20.06 СЗ 10 10 км ясно +40.7 +6.0 12 +38 +39 очень
жарко
1003.7 1004.0 +29.6

 

Местоположение метеостанции Basrah Airport (Ирак): широта 30.52 долгота 47.78 высота над уровнем моря 3 м.

В архиве по умолчанию представлена погода в Basrah Airport за последнюю неделю. Архивные данные за месяц целиком и за предыдущие месяцы, начиная с января 2011 года, Вы можете получить, выбрав интересующий диапазон дат из раскрывающегося списка и нажав кнопку "Ввод!".


*Определитесь, кто Вы:
робот инопланетянин человек

Внимание! Время в таблицах - всемирное. Для получения местного времени необходимо прибавить поправку, которая в Basrah Airport равна 3 ч.

Смотрите также архив погоды в соседних городах и на ближайших метеорологических станциях:

Погода в Basrah (Ирак) (6 км)
Погода в Abadan (Иран) (48 км)
Погода в Abdaly (Кувейт) (50 км)
Погода в Sabriyah (Кувейт) (86 км)
Погода в Mitribah (Кувейт) (87 км)
Погода в Fao (Ирак) (92 км)
Погода в Bubiyan (Кувейт) (101 км)
Погода в Jal Aliyah (Кувейт) (103 км)
Погода в Ahwaz (Иран) (124 км)
Погода в Failaka Island (Кувейт) (126 км)

Пояснения к столбцам:

Ветер - указаны скорость ветра в м/с - средняя за 10 мин, порывы в срок и между сроками (в фигурных скобках) и направление, откуда дует ветер: С - северный, СВ - северо-восточный, В - восточный, ЮВ - юго-восточный, Ю - южный, ЮЗ - юго-западный, З - западный, СЗ - северо-западный.
Видимость - горизонтальная дальность видимости в метрах или километрах. При видимости от 1 до 10 км при отсутствии осадков обычно наблюдается дымка, при ухудшении видимости до 1 км и менее - туман. В сухую погоду видимость может ухудшаться дымом, пылью или мглою.
Явления - указаны атмосферные явления, наблюдавшиеся в срок или в последний час перед сроком; фигурными скобками обозначены явления, наблюдавшиеся между сроками (за 1-3 часа до срока); квадратными скобками обозначены град или гололедные отложения с указанием их диаметра в мм.
Облачность - указаны через наклонную черту общая и нижняя облачность в баллах и высота нижней границы облаков в метрах; квадратными скобками обозначены формы облаков: Ci - перистые, Cs - перисто-слоистые, Cc - перисто-кучевые, Ac - высококучевые, As - высокослоистые, Sc - слоисто-кучевые, Ns - слоисто-дождевые, Cu - кучевые, Cb - кучево-дождевые. Подробнее классификацию облаков см. в Атласе облаков (PDF).
T - Температура воздуха - температура, измеренная на высоте 2 м над землей.
Td - Температура точки росы - температура, при понижении до которой содержащийся в воздухе водяной пар достигнет насыщения.
f - Относительная влажность воздуха - влажноcть воздуха, измеренная на высоте 2 м над землей.
Te - Эффективная температура - температура, которую ощущает одетый по сезону человек в тени. Характеристика душности погоды. При расчете учитывается влияние влажности воздуха и скорости ветра на теплоощущения человека.
Tes - Эффективная температура на солнце - температура, которую ощущает человек, с поправкой на солнечный нагрев. Характеристика знойности погоды. Зависит от высоты солнца над горизонтом, облачности и скорости ветра. Ночью, в пасмурную погоду, а также при ветре 12 м/с и более поправка равна нулю.
P - Атмосферное давление - приведенное к уровню моря атмосферное давление.
Po - Атмосферное давление - измеренное на уровне метеостанции атмосферное давление.
Tmin - Минимальная температура - минимум температуры воздуха на высоте 2 м над землей.
Tmax - Максимальная температура - максимум температуры воздуха на высоте 2 м над землей.
R - Количество осадков - Количество выпавших осадков за период времени, мм. При наведении курсора мыши на число - период времени, за который выпало указанное количество осадков.
R24 - Количество осадков - Количество выпавших осадков за 24 часа, мм.
S - Снежный покров - Высота снежного покрова, см. При наведении курсора мыши на число - состояние снежного покрова и степень покрытия местности в баллах.